This demonstration page uses our WeatherBlox Daily Observations layout. Learn more.

41.55636, -103.73856

Hourly Observations for October 29, 2016

Temp ( °F °C ) Dew Point ( °F °C ) Humidity (%) Winds ( mph kmh ) Pressure ( in mb ) Visibility ( mi km ) Precip ( " mm )
12:53 am 00:53 Clear 56 13.3 40 4.4 55 55 E 5 7 29.82 1010 10 16.0934 0 0
1:53 am 01:53 Clear 56 13.3 40 4.4 55 55 SE 5 7 29.8 1009 10 16.0934 0 0
2:53 am 02:53 Mostly Cloudy with Light Thunderstorms 57 13.9 44 6.7 62 62 N 17 28 29.85 1011 10 16.0934 0 0.0254
3:14 am 03:14 Mostly Cloudy 55 13 45 7 67 67 NE 18 30 29.85 1011 10 16.0934 0 0
3:53 am 03:53 Clear 57 13.9 43 6.1 60 60 ENE 14 22 29.81 1010 10 16.0934 0 0.0254
4:53 am 04:53 Mostly Clear 54 12.2 43 6.1 67 67 VRB 5 7 29.87 1011 10 16.0934 0 0
5:53 am 05:53 Partly Cloudy with Light Rain 53 11.7 43 6.1 69 69 N 15 24 29.94 1014 10 16.0934 0 0.0254
6:00 am 06:00 Mostly Cloudy with Light Rain 52 11 43 6 72 72 NNE 16 26 29.97 1015 10 16.0934 0 0
6:53 am 06:53 Cloudy with Light Rain 51 10.6 44 6.7 77 77 NE 12 19 29.95 1014 10 16.0934 0 0.0254
7:53 am 07:53 Mostly Sunny 51 10.6 43 6.1 74 74 ENE 3 6 29.98 1015 10 16.0934 0 0.0254
8:53 am 08:53 Sunny 53 11.7 43 6.1 69 69 Calm 30.02 1017 10 16.0934 0 0
9:53 am 09:53 Sunny 53 11.7 43 6.1 69 69 Calm 30.04 1017 10 16.0934 0 0
10:53 am 10:53 Sunny 58 14.4 44 6.7 60 60 NE 7 11 30 1016 10 16.0934 0 0
11:53 am 11:53 Sunny 63 17.2 45 7.2 52 52 NE 9 15 30.02 1017 10 16.0934 0 0
12:53 pm 12:53 Sunny 63 17.2 45 7.2 52 52 NNE 15 24 30 1016 10 16.0934 0 0
1:53 pm 13:53 Sunny 62 16.7 45 7.2 54 54 NNE 13 20 30.01 1016 10 16.0934 0 0
2:53 pm 14:53 Sunny 57 13.9 44 6.7 62 62 NNE 15 24 30.04 1017 10 16.0934 0 0
3:53 pm 15:53 Sunny 59 15 43 6.1 56 56 N 15 24 30.06 1018 10 16.0934 0 0
4:53 pm 16:53 Sunny 55 12.8 42 5.6 62 62 NE 9 15 30.1 1019 10 16.0934 0 0
5:53 pm 17:53 Clear 48 8.9 40 4.4 74 74 ENE 12 19 30.15 1021 10 16.0934 0 0
6:28 pm 18:28 Mostly Cloudy 46 8 39 4 76 76 ENE 10 17 30.18 1022 10 16.0934 0 0
6:53 pm 18:53 Cloudy 47 8.3 40 4.4 77 77 ENE 14 22 30.18 1022 10 16.0934 0 0
7:53 pm 19:53 Cloudy 47 8.3 40 4.4 77 77 E 9 15 30.21 1023 10 16.0934 0 0
8:43 pm 20:43 Cloudy 46 7.8 40 4.4 79 79 E 8 13 30.24 1024 10 16.0934 0 0
8:53 pm 20:53 Cloudy 46 7.8 40 4.4 79 79 ENE 7 11 30.23 1024 10 16.0934 0 0
9:16 pm 21:16 Cloudy 46 7.8 40 4.4 79 79 E 6 9 30.27 1025 10 16.0934 0 0
9:53 pm 21:53 Cloudy 46 7.8 40 4.4 79 79 ESE 6 9 30.25 1025 10 16.0934 0 0
10:10 pm 22:10 Cloudy 46 8 39 4 76 76 SE 6 9 30.27 1025 10 16.0934 0 0
10:53 pm 22:53 Cloudy 45 7.2 40 4.4 83 83 E 6 9 30.23 1024 10 16.0934 0 0
11:53 pm 23:53 Cloudy 45 7.2 40 4.4 83 83 S 7 11 30.23 1024 10 16.0934 0 0

Powered by AerisWeather